Location: UFOWorks Observatory
(42.1050°N, 72.2350°W)
Time: 20:11:12
(UTC-04:00)

ISS - Visible Passes

Search period start: 28 August 2016 00:00
Search period end: 07 September 2016 00:00
Orbit: 402 x 406 km, 51.6° (Epoch: 29 August)

Date Brightness Start Highest point End Pass type
(mag) Time Alt. Az. Time Alt. Az. Time Alt. Az.
02 Sep -0.5 05:44:23 10° SSE 05:46:04 13° SE 05:47:45 10° E visible
04 Sep -1.7 05:34:26 10° SSW 05:37:21 30° SE 05:40:17 10° ENE visible
05 Sep -0.9 04:43:25 12° SSE 04:45:03 16° SE 04:47:13 10° E visible
06 Sep -3.2 05:26:02 14° SW 05:28:42 74° SE 05:32:00 10° ENE visible
